This is the latest recevied weather packets stored in our database for station/object W8LMG. If no packets are shown the sender has not sent any weather packets the latest 10 day(s).
| Time | Temp. | Humidity | Pressure | Rain* | Wind** | Luminosity | Snow |
|---|---|---|---|---|---|---|---|
| 1778073129 | 12.78° C | 99% | 1011.6 hPa | 1.78 mm | - | 33 W/m² | - |
| 1778072826 | 12.78° C | 99% | 1011.4 hPa | 0 mm | - | 18 W/m² | - |
| 1778072523 | 12.78° C | 99% | 1011.5 hPa | 1.27 mm | - | 32 W/m² | - |
| 1778072221 | 12.78° C | 99% | 1011.6 hPa | 4.32 mm | - | 36 W/m² | - |
| 1778071918 | 12.22° C | 99% | 1011.6 hPa | 4.83 mm | - | 33 W/m² | - |
| 1778071616 | 12.22° C | 99% | 1011.7 hPa | 3.56 mm | - | 25 W/m² | - |
| 1778071314 | 12.22° C | 99% | 1011.6 hPa | 1.78 mm | - | 39 W/m² | - |
| 1778071011 | 12.22° C | 99% | 1011.5 hPa | 0 mm | - | 17 W/m² | - |
| 1778070710 | 12.22° C | 99% | 1011.6 hPa | 3.05 mm | - | 15 W/m² | - |
| 1778070406 | 12.22° C | 99% | 1011.3 hPa | 6.1 mm | - | 28 W/m² | - |
| 1778070104 | 12.22° C | 99% | 1011.3 hPa | 6.1 mm | - | 17 W/m² | - |
| 1778069801 | 12.22° C | 99% | 1011.3 hPa | 3.05 mm | - | 18 W/m² | - |
| 1778069497 | 12.22° C | 99% | 1011.3 hPa | 1.27 mm | - | 9 W/m² | - |
| 1778069196 | 12.22° C | 99% | 1011 hPa | 1.27 mm | - | 11 W/m² | - |
| 1778068892 | 12.22° C | 99% | 1011.4 hPa | 0 mm | - | 10 W/m² | - |
| 1778068591 | 12.22° C | 99% | 1011.2 hPa | 0 mm | - | 11 W/m² | - |
| 1778068289 | 12.22° C | 99% | 1011.2 hPa | 1.78 mm | - | 15 W/m² | - |
| 1778067986 | 12.22° C | 99% | 1011.3 hPa | 3.05 mm | - | 8 W/m² | - |
| 1778067684 | 12.22° C | 99% | 1011.2 hPa | 3.05 mm | - | 6 W/m² | - |
| 1778067382 | 12.22° C | 99% | 1011 hPa | 4.83 mm | - | 7 W/m² | - |
| 1778067079 | 12.22° C | 99% | 1011 hPa | 3.05 mm | - | 6 W/m² | - |
| 1778066775 | 12.22° C | 99% | 1011.2 hPa | 3.05 mm | - | 6 W/m² | - |
| 1778066473 | 12.22° C | 99% | 1010.9 hPa | 3.05 mm | - | 7 W/m² | - |
| 1778066170 | 12.22° C | 99% | 1011 hPa | 4.32 mm | - | 5 W/m² | - |
| 1778065868 | 11.67° C | 99% | 1011 hPa | 4.83 mm | - | 3 W/m² | - |
* Rain latest hour (hover to see other rain measurements)
** Current wind speed in m/s (hover to see current wind gust speed)